GFSCGP_925_rhum_000.txt.gz
RH
21 24 23 17 16 16 16 19 24 19 15 14 26 34 33 44 48 48 50 55 54 52 48 52 53 56 61 62 61 62 60 53 41 39 38 38 36 35 36 37 37 39 40 40
24 24 17 17 21 23 20 24 26 20 17 17 29 34 37 41 45 44 48 52 54 52 49 50 46 43 42 42 39 38 39 38 38 40 37 36 36 38 39 42 44 43 40 41
28 19 15 22 28 28 34 30 25 22 20 22 28 34 38 34 36 37 42 49 52 52 54 51 49 39 35 34 34 33 34 34 35 35 34 35 35 38 40 42 43 43 42 39
21 22 24 28 27 27 36 27 26 24 26 25 22 47 35 41 43 44 49 54 54 54 53 51 48 43 38 37 36 34 33 32 32 31 31 33 41 46 42 39 46 46 40 37
29 29 32 30 25 24 31 24 26 25 32 31 29 46 40 40 45 47 51 53 58 57 57 57 49 41 39 38 35 33 34 34 34 34 36 39 42 36 39 46 46 42 38 37
25 23 24 24 25 22 22 29 39 38 45 60 40 50 51 49 44 44 46 50 52 56 57 51 44 41 38 36 35 34 36 36 36 37 39 42 37 40 47 44 40 39 37 38
31 30 26 25 31 29 32 46 68 61 72 66 44 59 54 40 38 45 52 51 50 53 58 56 48 42 37 36 37 37 37 39 38 37 43 45 46 45 42 47 52 46 40 47
42 52 29 25 26 28 31 41 65 63 76 52 41 57 48 39 42 43 42 47 47 48 53 55 50 46 45 48 46 44 44 42 44 44 43 43 44 49 55 56 60 52 52 55
46 38 27 23 23 29 33 38 32 56 67 63 56 42 35 34 35 33 34 40 49 52 53 54 52 50 49 47 47 46 45 43 39 37 40 44 45 47 47 49 54 54 54 55
31 39 26 22 30 30 24 26 49 66 56 63 54 52 57 44 39 37 47 53 56 56 55 55 52 50 45 39 38 39 45 48 49 48 49 47 48 48 46 46 50 54 54 51
41 41 36 35 36 36 39 40 45 51 67 72 78 57 42 48 44 51 54 54 57 59 60 59 52 45 39 37 38 39 39 46 41 40 45 48 52 53 48 54 55 52 52 52
38 52 64 35 27 26 27 37 48 70 58 85 85 58 35 42 45 49 51 52 53 58 58 57 50 44 40 40 30 24 26 27 27 29 42 56 59 57 48 54 52 56 50 48
39 54 70 57 44 38 33 31 54 61 67 57 76 60 42 48 49 51 56 58 63 62 61 58 50 46 40 27 24 25 26 27 27 26 28 30 32 36 60 56 52 46 44 56
51 60 52 70 49 41 30 30 47 54 77 67 70 44 56 61 64 64 66 68 67 62 58 56 53 46 30 27 28 28 28 28 27 26 28 37 48 53 67 53 60 65 87 69
56 61 54 43 47 40 35 37 38 40 48 60 51 56 65 64 67 67 66 64 60 60 56 52 53 42 29 30 29 28 27 28 28 30 34 49 56 57 58 64 68 68 61 60
75 75 70 50 64 68 46 46 47 43 36 39 65 73 61 62 70 71 66 64 62 58 53 50 46 32 31 30 29 27 28 30 32 34 45 50 53 61 71 74 70 66 66 37
88 91 78 72 91 79 63 43 44 38 55 39 55 70 66 74 76 74 68 62 60 54 52 49 37 28 29 28 27 27 28 32 35 41 55 55 58 66 71 84 83 81 50 53
98 93 93 75 72 57 52 44 43 73 67 70 72 71 67 73 74 67 59 58 58 53 47 41 24 24 25 26 26 27 32 35 40 47 51 58 63 64 72 81 76 66 72 52
73 90 97 73 90 50 46 43 46 45 81 72 77 75 68 72 67 64 57 53 49 42 32 27 22 22 24 26 28 30 34 38 41 47 55 60 61 68 77 75 72 69 70 38
89 85 80 98 61 52 48 46 45 44 73 77 78 80 76 70 91 78 67 56 45 28 28 24 24 24 26 27 28 33 39 43 45 51 56 56 61 66 71 70 72 67 42 47
99 95 92 98 87 78 53 51 43 70 61 81 81 83 83 83 78 66 65 57 30 28 26 25 27 28 29 32 37 40 43 45 49 53 54 59 63 60 51 51 43 42 48 56
82 93 98 99 96 82 54 50 60 62 84 87 84 81 82 76 70 67 58 35 35 30 31 29 30 31 35 39 40 41 44 48 53 54 56 63 59 51 51 47 46 45 52 54
61 70 83 77 78 56 53 53 60 81 87 89 84 79 77 73 68 48 42 40 35 32 31 31 33 37 40 42 43 46 46 52 54 55 55 58 56 58 54 51 47 53 55 58
59 66 85 74 58 64 58 79 83 81 84 84 77 75 70 65 48 46 43 40 36 35 36 39 41 46 49 50 52 58 60 62 60 58 57 58 61 62 60 60 54 58 61 64
67 61 64 74 59 69 76 76 86 83 81 81 74 72 68 46 42 42 42 41 40 41 44 44 45 51 55 60 64 65 71 67 69 62 60 58 64 67 66 60 69 68 66 68
71 62 79 67 59 61 69 85 79 81 78 75 71 43 37 37 42 39 45 44 45 48 43 43 51 58 63 70 63 66 80 71 80 76 71 68 64 71 71 69 69 68 66 69

GFSCGP_925_rhum_006.txt.gz
RH
23 25 23 18 17 14 15 16 18 20 28 54 65 68 66 73 76 74 74 73 70 69 67 68 68 76 81 88 87 89 86 88 69 56 52 46 45 48 49 44 41 40 39 37
25 24 19 25 26 24 24 28 33 33 38 53 56 57 52 55 61 68 70 69 67 65 64 59 57 58 65 70 73 63 56 56 50 44 45 48 48 49 45 43 41 41 40 38
26 21 22 26 30 31 33 28 28 39 47 47 48 55 54 48 58 61 63 61 61 64 66 57 47 45 47 48 47 41 41 38 37 34 32 36 40 47 49 46 42 42 40 37
30 29 27 28 29 31 31 29 34 48 47 55 41 73 48 52 60 60 61 63 65 62 54 50 42 36 35 35 33 34 34 34 34 34 34 35 38 45 48 45 42 45 45 43
31 29 30 30 27 28 32 30 32 31 38 40 44 65 55 57 64 64 64 62 60 57 55 52 48 46 43 39 37 37 37 37 38 38 39 42 45 43 49 45 47 42 39 43
31 26 27 27 29 26 30 38 46 51 51 59 44 54 62 68 61 61 57 60 62 61 58 57 50 44 43 39 36 37 41 44 43 44 46 47 49 46 43 42 40 45 43 45
33 32 28 27 30 30 40 45 65 59 69 71 50 54 52 50 53 55 58 61 63 61 64 63 56 52 48 46 45 45 44 42 40 41 40 40 41 41 42 44 52 54 49 46
44 46 29 25 28 32 34 44 66 58 79 62 48 60 53 45 45 50 53 57 66 65 64 64 62 54 50 46 44 42 41 44 49 51 52 52 54 54 56 57 57 57 54 53
43 37 27 25 26 30 34 45 41 70 68 68 66 49 45 56 55 54 56 61 72 70 72 69 59 49 48 49 48 46 47 42 36 31 28 35 39 35 24 22 25 27 38 55
39 35 31 26 29 32 31 38 44 67 54 64 64 59 66 58 61 58 64 67 72 69 69 63 52 49 48 48 53 47 31 25 24 24 23 22 20 18 16 16 18 26 52 74
36 39 37 32 37 38 39 41 56 60 70 68 81 68 52 54 57 58 66 71 70 72 66 60 52 45 40 39 35 28 25 25 25 24 22 22 22 22 24 25 22 39 64 70
42 53 62 35 33 37 33 38 42 58 46 86 84 58 49 55 51 63 71 70 71 66 61 55 48 36 30 28 26 25 26 26 25 24 25 26 27 30 33 36 41 51 64 65
42 57 71 51 38 35 34 47 55 58 72 72 77 56 57 65 68 68 76 74 72 69 63 60 51 38 33 30 28 29 28 26 24 25 28 31 34 37 40 42 49 56 56 58
53 58 49 58 43 45 35 45 48 46 70 64 70 40 58 67 74 80 79 76 73 67 62 61 54 39 33 31 30 29 26 24 25 29 33 35 38 42 46 47 55 67 67 67
48 52 51 60 61 46 36 35 54 48 47 52 47 52 43 67 75 79 76 76 72 68 62 61 55 39 33 36 32 28 25 25 28 32 35 39 42 45 47 53 61 74 82 80
64 70 58 63 71 67 47 42 45 50 47 58 54 56 64 73 81 81 76 74 72 66 58 54 49 36 34 34 30 27 25 26 30 35 38 41 45 48 48 55 65 77 86 61
71 87 56 44 76 60 50 46 50 47 48 52 66 51 79 80 78 78 80 74 71 61 52 51 43 35 29 27 26 26 26 28 33 37 39 43 51 50 52 63 70 79 80 78
94 87 79 73 68 45 35 41 47 47 54 64 62 68 73 72 74 73 72 72 71 58 50 50 44 36 26 22 27 27 29 32 36 38 42 45 52 52 58 65 72 73 80 83
70 86 94 68 74 45 30 63 65 58 50 73 68 74 73 78 70 71 71 68 65 60 46 42 39 32 21 22 26 29 32 36 40 40 43 47 53 54 56 65 68 63 70 77
80 81 71 89 52 41 36 43 48 43 70 73 72 78 81 76 90 68 70 70 60 49 44 31 28 24 26 30 34 40 41 43 44 45 48 50 54 56 58 62 58 49 48 44
99 98 76 99 74 63 45 48 44 63 57 80 72 73 85 81 74 64 66 64 53 46 28 28 30 31 32 38 42 41 44 47 54 55 54 54 57 60 58 56 54 54 50 60
91 94 98 96 89 54 49 49 59 59 56 73 78 78 75 73 70 73 74 56 36 36 34 32 32 34 40 44 44 51 55 60 59 60 66 68 66 67 57 60 55 49 58 62
71 65 76 67 68 50 50 54 52 58 57 74 78 80 73 82 76 78 55 41 38 35 35 36 37 39 35 39 51 62 62 58 59 66 75 68 71 68 61 65 59 57 61 56
71 66 79 66 48 62 60 54 61 66 67 69 79 82 80 80 79 60 48 43 41 38 39 39 39 38 43 48 55 68 65 68 73 84 77 79 75 73 65 64 61 59 58 60
74 70 70 77 67 65 64 72 68 71 78 80 82 80 79 76 60 47 44 45 41 40 41 40 42 49 52 56 63 70 75 84 86 96 95 89 91 80 81 63 60 67 68 64
77 70 80 77 54 52 53 48 68 80 84 86 83 81 61 57 45 44 48 44 44 44 43 44 50 56 58 66 70 76 86 92 92 87 88 89 100 100 98 72 69 68 66 66

GFSCGP_925_rhum_009.txt.gz
RH
23 20 20 18 16 14 16 17 18 25 40 48 59 56 58 58 56 59 59 58 59 64 70 78 90 93 92 95 92 87 81 79 74 76 54 46 49 55 49 42 41 38 37 37
23 25 20 25 26 22 24 27 36 42 42 46 49 58 56 55 60 60 59 60 59 62 61 69 81 87 83 80 79 82 75 65 56 50 48 50 53 51 44 42 40 40 40 38
27 23 24 27 30 32 31 30 37 39 45 43 44 50 58 56 57 59 59 57 58 56 57 59 70 81 86 72 59 58 55 52 50 46 42 43 49 53 52 46 42 41 42 41
31 29 26 28 31 30 34 31 41 48 40 40 38 35 55 59 61 59 58 57 57 50 46 46 50 53 55 50 48 49 49 45 43 42 42 43 51 54 55 43 44 44 44 45
33 30 29 31 30 31 36 39 36 34 34 36 42 39 48 55 63 58 55 55 52 47 42 42 44 45 48 42 43 44 43 44 45 45 45 45 45 43 44 44 47 49 51 51
32 28 29 29 34 33 39 38 41 43 40 44 40 37 42 57 53 54 52 54 51 48 47 49 52 50 52 44 47 46 44 43 41 41 42 42 43 45 52 58 60 62 58 55
32 32 28 28 32 32 35 39 49 49 54 47 48 46 36 39 45 45 49 49 52 51 53 51 49 51 54 56 52 45 46 50 46 46 47 48 49 52 61 62 62 56 55 50
34 38 27 28 30 33 38 38 54 58 61 46 47 52 36 40 38 40 42 45 52 54 57 51 52 52 51 52 50 51 53 53 43 37 31 28 27 24 19 17 19 29 35 44
42 37 27 30 29 30 35 38 41 59 61 55 47 44 37 46 44 48 51 52 54 55 56 53 57 57 55 51 54 45 37 30 24 23 22 20 20 18 18 20 19 22 18 48
40 36 32 30 32 35 33 37 41 48 54 51 44 52 42 53 47 48 54 53 56 58 57 55 52 57 59 59 46 32 29 25 25 22 21 22 22 22 23 24 26 28 30 60
35 41 39 35 37 36 38 41 52 48 55 42 48 36 44 45 43 48 47 54 58 59 56 48 49 52 59 47 38 27 27 27 24 21 22 25 25 26 29 32 33 37 40 59
43 52 52 36 35 38 34 38 41 46 45 65 63 39 43 47 43 48 51 58 58 56 49 46 45 44 41 37 33 27 27 27 23 23 25 27 29 33 36 40 42 45 56 65
44 52 58 41 32 34 36 44 46 53 64 66 75 36 46 56 53 48 52 60 61 54 50 46 42 35 34 35 29 28 33 31 25 25 28 30 35 40 44 48 52 60 72 76
51 52 47 47 38 42 43 50 44 41 54 53 58 37 36 49 56 62 62 61 57 53 52 47 43 34 34 32 31 39 45 28 27 28 30 34 41 44 47 50 63 69 79 86
46 49 53 59 58 49 37 46 47 39 42 48 42 44 34 40 51 60 63 61 58 55 53 50 46 35 34 34 36 48 32 28 29 28 33 38 42 46 48 51 58 63 73 90
60 63 59 65 64 59 50 41 44 50 49 44 48 46 38 54 58 67 65 62 60 57 53 49 46 38 36 37 44 36 29 29 28 30 34 38 43 49 48 54 64 67 80 81
62 78 54 49 65 51 51 48 44 47 45 44 54 38 60 66 64 62 64 61 60 57 52 48 48 42 35 36 36 31 30 28 29 32 35 39 44 46 51 56 68 77 82 86
78 66 65 64 67 48 33 44 41 41 43 42 49 51 56 57 64 60 58 60 61 57 50 48 47 43 40 35 29 29 30 29 32 36 39 42 45 49 54 58 68 78 80 82
61 73 78 70 57 42 27 40 56 56 38 48 47 53 66 70 64 63 60 58 57 56 50 45 45 43 37 26 25 28 30 38 42 42 44 50 51 54 63 68 69 69 65 74
68 74 65 74 52 47 35 32 52 43 54 46 55 65 74 65 76 50 60 60 61 58 51 46 40 30 24 27 30 35 41 38 42 51 58 59 59 65 72 71 64 62 71 56
98 93 72 78 69 57 40 45 46 50 45 61 62 64 71 68 61 55 62 65 59 51 36 31 29 32 32 34 39 40 37 47 54 56 54 62 70 75 74 72 61 61 62 61
73 83 84 84 73 58 43 50 58 53 52 58 66 64 70 60 64 61 65 54 44 36 37 35 37 35 39 42 39 40 52 55 56 59 73 78 76 75 77 73 68 60 62 72
68 64 68 62 63 48 46 59 52 56 54 56 66 62 63 70 64 67 58 41 37 36 37 36 38 38 36 36 44 55 58 65 65 78 80 84 85 80 76 74 69 66 71 73
70 62 68 65 48 55 53 50 51 51 54 56 61 61 70 67 67 63 44 38 36 38 38 42 37 39 39 42 48 57 70 70 78 86 90 96 93 91 80 76 65 67 72 71
69 67 68 70 61 57 53 57 56 56 66 70 70 71 71 70 69 50 42 43 41 54 77 40 40 44 47 50 55 63 68 72 91 94 85 85 90 97 98 91 76 64 63 68
71 67 76 74 49 48 49 45 58 66 66 69 75 78 72 63 55 44 46 50 73 78 48 47 45 48 53 58 64 66 67 85 87 93 82 74 79 84 97 100 86 66 69 67

GFSCGP_925_rhum_012.txt.gz
RH
19 16 14 12 10 10 10 10 11 16 27 22 23 23 27 35 38 40 37 38 38 39 48 59 68 73 75 79 82 91 98 94 87 77 68 59 56 60 58 51 56 54 52 50
19 16 17 17 14 12 11 11 17 24 29 25 25 30 31 32 37 38 39 39 41 46 48 60 67 71 72 77 79 81 82 81 70 62 52 51 58 57 48 52 54 49 48 45
14 19 21 18 17 16 18 15 23 18 28 26 24 29 33 38 38 40 39 38 41 44 50 57 64 68 70 69 69 62 58 55 53 57 58 58 58 53 48 46 43 51 52 49
21 22 20 19 20 22 22 21 21 27 23 21 25 20 33 38 42 42 45 44 45 48 48 47 49 52 48 52 53 51 53 53 54 48 47 50 43 43 49 45 48 48 58 58
26 22 21 20 23 24 25 25 25 24 22 25 26 24 32 38 42 44 46 45 44 41 39 36 37 39 41 49 48 48 47 48 51 53 51 47 48 46 46 49 53 52 52 54
24 21 21 23 26 24 27 26 26 25 25 30 22 24 20 36 33 38 42 40 41 38 34 32 34 37 41 47 51 51 48 50 50 51 53 53 51 49 48 48 43 36 31 28
23 24 22 23 27 27 26 24 29 29 34 33 33 30 20 22 29 32 41 37 38 36 33 35 37 37 43 50 50 47 46 49 51 50 49 49 46 38 29 29 25 26 23 23
20 30 22 23 24 23 26 24 27 35 39 23 34 28 19 26 25 29 33 32 34 35 36 35 36 40 45 47 46 47 46 45 44 38 34 32 29 26 24 28 32 29 30 31
24 26 23 26 24 23 28 30 28 40 46 41 24 25 25 30 30 30 32 32 34 34 37 37 41 42 44 46 49 42 35 32 32 33 32 32 31 34 36 38 37 34 35 37
27 30 26 26 25 27 24 25 33 34 46 38 22 27 21 34 34 32 32 34 33 33 37 40 42 45 44 45 42 37 30 31 33 33 32 33 35 38 40 40 39 38 40 42
23 26 32 30 28 25 30 27 29 27 38 25 22 14 26 29 30 34 33 33 33 36 40 42 42 44 45 40 37 33 33 36 33 31 34 37 39 40 41 42 42 42 47 46
28 31 41 29 28 28 26 24 21 24 31 43 49 20 25 32 31 29 31 32 32 38 40 40 41 44 43 37 32 33 35 32 30 31 35 37 38 41 43 44 44 47 51 53
32 35 42 35 31 28 29 27 24 32 42 41 59 19 25 30 33 30 31 31 37 42 41 38 39 39 37 33 31 34 36 34 32 28 29 32 37 42 45 46 49 50 53 57
34 36 34 37 26 27 35 32 26 22 35 26 32 14 19 22 28 30 34 34 39 44 41 37 35 34 32 30 33 35 47 37 30 28 29 31 39 42 47 50 51 51 55 62
36 38 36 35 36 33 28 28 29 27 25 30 16 20 13 16 20 24 33 38 41 44 41 39 36 33 30 29 35 48 36 35 34 32 30 33 41 44 48 51 50 54 60 61
44 47 47 49 43 38 37 27 27 27 24 27 20 23 16 20 26 32 39 42 43 43 40 39 37 34 30 29 42 34 35 33 33 33 34 36 41 45 50 49 53 52 52 57
50 59 47 40 48 45 62 39 26 26 26 27 28 22 26 32 34 33 37 41 42 41 40 39 38 35 31 31 33 35 32 34 35 34 35 38 43 48 45 46 50 49 52 57
60 50 55 59 60 79 20 28 26 24 23 21 23 26 26 26 32 35 33 38 41 39 39 38 38 36 34 30 32 33 31 32 33 35 38 39 39 42 43 46 50 52 53 54
42 49 70 85 43 29 14 22 28 34 20 20 22 21 30 42 44 39 38 38 39 40 40 41 39 38 34 33 32 31 30 32 37 37 32 36 44 44 43 46 52 55 54 53
47 51 48 65 86 85 26 26 39 35 30 29 31 32 42 46 54 21 37 40 42 42 43 42 37 38 33 30 31 30 33 38 32 36 43 44 43 44 47 52 55 58 57 55
77 80 82 63 82 42 26 30 36 38 31 33 38 38 44 46 34 37 39 40 45 45 45 39 34 30 30 34 36 37 36 29 38 47 46 45 48 53 56 55 58 58 56 53
56 69 87 72 91 76 29 41 50 39 40 38 40 39 45 40 46 45 46 47 46 45 39 33 31 35 41 47 38 28 28 39 49 51 51 52 58 62 59 62 63 60 57 54
52 48 48 44 38 34 32 36 35 41 42 39 41 35 44 45 45 46 46 44 43 36 32 33 40 47 49 38 35 30 34 52 55 57 58 60 67 67 65 63 62 60 54 58
49 46 54 54 32 33 32 31 31 33 37 35 34 39 41 47 43 48 46 40 37 32 32 36 50 51 35 41 43 44 51 60 62 62 64 67 69 79 77 69 63 60 59 61
49 51 49 49 38 34 34 35 36 35 40 44 43 49 52 52 50 50 44 37 33 49 65 69 60 38 36 46 49 56 62 64 65 69 68 64 69 75 78 82 82 72 65 60
49 44 55 51 27 37 34 36 43 47 47 51 55 54 56 57 56 48 38 42 77 81 78 62 53 50 51 55 64 69 68 72 79 77 70 65 72 70 75 76 82 80 78 68

GFSCGP_925_rhum_015.txt.gz
RH
18 17 17 13 12 10 9 8 8 8 10 8 9 13 14 19 19 21 22 25 28 30 35 42 46 50 46 51 56 86 89 91 86 75 67 60 52 53 54 48 51 50 48 45
18 23 13 10 10 9 9 10 12 12 12 16 11 13 15 18 19 20 22 23 24 28 37 44 50 55 56 60 62 87 83 81 67 55 50 45 47 51 44 46 50 47 49 45
23 15 13 13 10 10 11 10 15 14 15 15 13 17 22 20 20 25 23 23 24 31 37 45 51 54 58 62 67 70 65 59 49 46 52 53 54 48 43 44 42 50 53 51
29 16 14 12 12 12 17 14 13 14 19 20 14 18 20 24 26 27 28 27 29 31 36 43 49 54 54 56 53 50 48 47 52 45 39 39 38 39 45 42 45 49 50 52
21 17 15 14 17 17 26 17 16 15 16 19 16 17 43 24 24 27 28 29 31 35 40 40 39 41 43 46 45 46 43 40 44 46 45 44 44 43 43 44 47 43 36 30
30 16 15 16 19 17 19 20 20 17 16 26 15 18 21 24 21 24 29 32 35 36 34 30 33 36 40 43 45 44 41 44 46 49 51 50 46 42 37 34 26 24 22 22
17 16 18 17 20 19 17 20 25 23 26 28 18 19 16 13 18 19 29 32 34 34 29 27 29 31 37 44 47 45 43 46 48 47 44 41 34 30 25 26 24 27 25 26
19 29 19 18 17 18 20 17 25 28 27 18 21 21 14 17 15 17 24 29 33 32 28 27 29 31 38 44 45 41 42 44 42 36 32 31 28 32 27 29 32 29 29 30
17 22 18 19 18 16 18 25 18 26 30 32 18 12 14 21 21 21 26 29 32 30 28 28 29 33 39 43 43 43 40 35 32 34 34 36 34 36 34 35 35 32 33 32
16 22 18 22 20 21 22 18 25 22 34 34 16 16 12 23 23 24 27 30 30 28 27 28 32 36 40 41 44 40 34 31 36 36 36 35 34 36 36 36 37 36 37 39
14 18 26 24 24 18 24 22 20 22 29 32 22 16 15 14 20 23 24 27 28 28 28 30 34 38 39 42 40 36 31 36 35 34 34 36 35 36 36 37 38 39 41 41
15 21 34 25 22 20 21 20 21 30 25 28 40 22 15 18 19 21 22 23 25 26 27 30 35 38 39 40 37 34 36 36 34 33 34 35 35 35 35 37 39 41 42 42
25 24 36 30 26 22 21 18 19 18 32 26 49 22 16 18 19 18 21 23 25 26 27 31 34 37 39 37 35 34 36 34 34 36 28 30 31 34 36 38 40 43 42 43
33 23 26 34 25 21 28 20 19 21 31 26 24 15 13 15 17 16 19 20 23 26 29 32 34 36 39 36 33 33 36 38 39 24 24 25 30 35 36 39 42 43 43 46
30 34 25 24 25 22 20 19 20 20 19 25 19 11 9 9 11 13 15 20 21 28 32 34 34 34 36 34 32 33 39 45 30 26 26 27 32 37 36 36 42 42 48 46
34 38 38 44 28 27 26 20 16 17 18 15 14 14 10 12 12 16 17 22 24 28 31 33 33 32 33 32 31 34 42 35 31 31 31 31 33 36 34 39 43 42 43 43
41 51 46 35 39 38 58 38 22 17 16 17 22 16 14 19 19 19 19 23 26 28 31 33 32 33 32 31 30 36 34 32 31 31 31 32 34 35 37 37 35 37 41 44
58 47 48 46 65 79 17 18 16 19 16 14 14 14 14 18 21 22 21 22 27 28 30 31 32 34 34 32 30 33 31 30 31 30 31 34 31 30 31 33 34 36 42 44
33 43 56 82 36 22 17 13 19 22 18 12 17 14 14 22 29 26 24 24 25 26 28 30 32 34 35 33 30 31 30 28 29 36 33 26 29 33 32 33 35 40 46 46
38 48 43 52 82 86 29 23 26 25 23 19 18 20 20 28 41 21 26 24 25 27 30 32 34 36 36 33 30 31 29 39 32 31 29 32 32 31 32 35 40 44 48 48
66 72 76 58 73 43 21 21 26 31 34 26 27 22 25 30 25 33 33 28 27 29 31 35 37 36 34 31 31 40 37 38 29 34 36 34 34 37 42 45 46 49 50 49
52 63 82 64 91 76 21 28 38 39 28 30 27 27 34 34 32 32 34 34 32 33 36 39 36 32 31 38 45 46 45 34 41 41 41 40 41 48 51 53 53 53 51 52
47 38 44 38 37 29 23 24 24 28 33 31 32 31 31 32 33 31 34 36 35 37 36 34 32 39 50 61 58 43 44 44 43 45 47 49 53 58 58 58 58 54 50 51
35 34 42 42 22 23 23 22 24 25 29 28 28 32 33 38 39 39 37 39 36 32 29 33 51 67 67 72 61 41 53 59 56 56 63 65 62 60 67 66 62 55 53 57
38 37 35 36 26 22 24 25 29 31 34 36 36 39 45 47 43 42 42 37 33 32 60 72 82 84 69 53 49 54 60 64 68 74 70 65 65 66 61 61 65 72 71 71
36 29 48 45 34 36 31 35 40 43 47 50 49 48 43 45 46 42 36 39 64 78 88 94 86 61 51 55 57 63 68 73 78 79 74 69 68 67 63 65 69 74 78 77

GFSCGP_925_rhum_018.txt.gz
RH
18 22 21 20 17 14 14 13 13 10 10 10 9 13 16 16 18 23 26 29 31 32 30 36 37 37 35 49 67 70 75 84 84 85 75 69 61 56 52 51 50 48 46 45
16 20 16 16 14 14 11 13 11 10 8 9 8 12 12 15 17 20 22 28 29 30 36 39 44 48 44 53 74 86 87 82 81 72 59 52 51 53 48 50 50 51 51 48
29 32 27 13 15 13 11 14 16 12 10 7 22 13 13 13 16 16 18 19 22 29 37 41 46 52 54 76 82 82 78 75 75 55 48 51 50 47 46 49 50 53 54 54
23 24 18 13 11 10 18 19 15 15 19 20 19 26 19 28 16 17 19 21 22 26 33 40 47 60 63 68 65 70 70 61 49 47 48 50 44 48 44 44 50 50 49 46
24 32 16 14 22 18 22 22 19 14 14 33 38 31 38 37 37 21 24 25 25 29 34 41 44 57 59 60 59 51 47 49 49 43 45 44 46 44 45 45 38 30 27 24
25 20 18 22 18 16 20 22 18 13 17 55 38 41 33 43 38 30 22 25 28 31 38 41 45 47 49 48 47 45 41 42 46 48 49 47 44 40 35 28 26 27 25 25
19 16 12 15 14 15 14 16 27 58 55 42 17 28 42 29 33 62 55 27 32 38 41 40 40 41 45 48 46 42 42 47 52 52 48 41 33 28 30 30 28 30 28 28
33 34 15 13 13 29 25 15 35 82 82 35 28 29 16 22 22 43 30 29 34 37 38 35 35 37 42 46 47 42 45 48 48 41 34 30 31 33 29 31 33 31 32 33
53 37 26 17 14 14 14 20 16 26 68 39 20 13 15 17 18 15 27 30 35 36 33 31 30 35 42 46 46 43 43 45 40 34 35 38 34 32 34 35 37 34 35 36
62 70 28 19 17 16 19 16 29 25 38 38 20 17 23 23 20 20 24 32 33 34 31 29 30 35 41 44 44 43 42 39 34 36 38 38 37 36 37 37 38 38 39 41
16 29 23 22 21 15 22 21 19 18 35 54 50 22 15 16 18 20 22 30 32 34 31 31 30 34 40 43 43 45 38 33 37 39 39 37 36 38 37 37 39 39 42 42
15 18 42 23 16 16 18 23 18 57 36 48 59 33 14 16 14 18 20 22 28 30 30 29 31 36 39 41 44 42 35 34 38 37 36 37 36 37 35 36 38 40 43 42
20 25 42 29 23 21 22 16 16 20 42 48 70 38 15 14 15 14 18 20 25 29 29 29 34 36 38 41 42 39 34 37 37 36 37 35 36 35 36 36 38 41 43 44
33 24 25 44 26 24 28 21 15 19 60 48 40 19 13 16 17 16 19 19 21 27 27 28 34 36 38 40 41 38 36 37 35 36 34 31 32 31 35 37 38 40 42 45
28 33 25 21 19 23 25 20 19 18 22 33 28 17 13 10 12 12 14 19 19 19 25 27 34 37 37 40 39 37 36 37 38 42 27 24 28 33 37 37 36 39 43 46
31 44 41 45 28 25 27 22 20 18 16 17 16 16 11 14 15 17 16 15 20 19 20 26 32 36 36 38 39 36 34 39 46 37 27 27 31 34 37 40 45 41 41 42
43 64 62 52 38 42 55 43 27 23 17 16 24 19 13 14 16 18 19 18 20 23 24 27 31 34 34 35 36 35 34 42 40 32 31 31 33 36 41 38 37 34 35 38
66 60 66 71 68 67 22 15 16 18 17 15 13 13 13 19 22 20 18 21 23 24 26 28 30 32 32 33 33 32 35 39 34 32 31 35 39 31 30 37 35 34 36 40
37 60 74 96 56 31 22 16 17 19 21 19 19 18 17 22 22 23 22 25 27 26 25 26 27 30 32 34 33 32 34 33 31 33 38 35 29 35 39 37 34 37 40 44
35 57 71 66 80 77 34 23 21 20 32 20 20 23 22 22 63 38 34 29 26 23 23 25 27 30 33 35 32 31 32 31 38 43 45 57 46 45 41 39 44 45 46 47
76 79 86 73 87 66 22 21 21 38 49 30 29 27 29 34 38 34 34 36 30 28 29 31 34 36 35 33 32 34 43 49 50 63 67 51 50 41 50 50 51 53 53 53
67 80 92 79 98 88 20 24 40 46 33 29 29 32 38 35 37 35 30 30 33 33 33 36 44 48 49 46 51 60 59 61 77 72 52 49 58 56 54 61 62 59 57 55
53 49 63 57 63 34 22 24 23 25 30 31 32 29 31 33 34 35 36 36 36 34 31 37 48 60 59 59 65 77 84 74 58 58 70 70 65 65 67 62 67 68 64 60
34 32 53 48 21 22 23 20 21 23 28 29 32 35 37 47 46 42 39 39 34 30 35 53 63 77 88 78 75 69 63 63 70 77 79 76 77 69 63 65 66 64 66 74
42 35 35 36 30 24 22 30 35 37 36 40 43 44 47 45 44 44 38 38 47 60 72 77 82 82 79 68 60 59 57 69 78 81 79 76 73 70 69 66 61 63 68 70
36 34 62 70 41 43 40 43 45 46 48 45 44 43 41 41 42 56 60 66 77 87 88 82 72 65 64 62 60 62 64 67 73 80 81 77 72 72 71 70 66 68 68 70

GFSCGP_925_rhum_024.txt.gz
RH
28 32 35 29 29 25 22 27 21 19 18 21 26 54 54 54 50 47 53 54 52 46 43 53 70 73 69 67 69 64 67 68 68 68 70 73 69 60 54 54 51 48 45 47
33 36 28 26 24 27 29 27 26 22 17 16 30 47 56 53 43 40 54 59 58 53 46 47 58 69 71 69 72 68 67 72 73 69 65 68 68 62 55 50 48 47 45 46
32 27 26 25 25 32 31 26 27 22 12 19 22 27 59 51 52 48 49 48 46 45 48 58 60 70 76 78 74 73 76 75 73 71 69 74 66 55 53 51 49 49 50 48
28 25 26 28 31 30 34 22 22 20 24 22 23 35 36 40 50 50 48 56 44 52 48 58 73 81 80 78 75 76 72 77 76 71 72 74 66 59 54 51 50 51 50 48
30 27 28 30 29 23 25 21 21 22 30 30 30 33 31 34 34 48 50 50 47 46 51 64 89 88 88 85 86 76 83 82 79 69 78 72 61 56 53 52 53 49 35 29
28 23 24 27 25 22 21 25 36 42 43 58 47 38 39 41 26 28 38 46 47 49 59 70 90 94 99 90 83 82 83 83 81 83 77 66 58 54 56 53 38 28 28 29
27 25 26 27 28 26 25 33 45 45 69 61 46 46 40 32 33 28 30 38 42 54 71 79 89 92 95 94 89 85 79 78 77 80 60 56 51 53 50 40 31 29 30 31
38 42 35 32 29 31 34 34 54 43 74 53 52 58 38 27 29 32 30 45 66 70 70 78 82 82 82 80 74 70 59 51 56 58 55 50 46 46 42 32 31 30 31 32
48 44 42 40 34 35 38 34 35 70 79 76 62 42 30 34 40 35 49 53 73 80 79 77 75 71 69 60 58 54 51 48 45 44 44 42 39 33 34 32 30 31 34 35
42 45 44 40 31 34 37 26 40 59 65 68 41 38 45 34 32 38 50 52 69 71 69 69 66 64 56 48 48 49 49 50 49 46 40 33 34 33 31 32 32 33 34 36
50 40 49 42 40 39 35 31 30 42 58 58 68 44 26 33 33 32 45 52 63 64 62 62 61 60 53 48 48 49 50 50 48 46 41 34 36 32 32 34 36 37 37 38
46 54 76 53 32 32 33 33 38 62 38 76 76 49 26 26 28 35 46 48 57 55 54 54 56 60 59 54 53 52 51 49 46 41 39 35 35 32 35 36 37 38 38 39
42 46 60 46 30 36 30 28 35 48 64 56 67 50 25 23 20 26 36 52 52 52 50 50 54 58 60 58 56 56 52 48 44 39 36 37 36 36 37 38 38 39 40 41
45 42 41 52 35 34 34 30 31 42 69 58 63 36 29 26 25 22 25 42 53 51 48 46 51 54 56 56 58 62 54 48 43 37 37 38 37 37 37 38 38 39 41 43
42 41 37 37 38 34 32 32 32 35 38 47 39 42 29 23 23 27 26 26 43 51 48 48 51 55 55 57 57 58 50 48 42 38 39 38 36 36 38 40 40 42 44 43
46 49 45 41 44 40 35 35 36 35 30 37 31 33 26 26 27 30 26 29 30 33 34 44 52 56 57 58 58 56 50 46 43 40 39 37 38 42 43 41 40 40 42 40
54 70 68 55 54 44 61 41 35 33 31 31 36 30 35 38 36 33 36 32 36 41 45 53 57 54 52 56 55 55 53 47 43 42 40 40 42 44 42 44 50 53 49 51
65 67 76 77 60 63 45 31 30 36 35 37 37 35 45 49 52 49 43 43 41 38 38 42 51 51 48 48 53 55 56 49 45 44 44 44 41 45 55 70 63 54 58 58
62 80 87 69 73 53 35 28 28 30 39 36 38 36 42 48 50 50 44 50 52 54 54 52 51 53 51 55 58 54 56 53 51 55 54 52 54 69 65 62 62 60 63 59
71 77 79 92 72 60 47 35 25 31 59 39 42 40 38 40 81 64 49 55 51 54 56 56 55 52 51 56 55 59 72 70 73 70 70 70 73 81 83 73 69 65 60 60
84 87 77 96 78 68 48 37 25 35 42 40 47 50 48 56 63 54 57 55 58 60 62 66 68 71 72 76 73 78 79 80 75 81 87 89 89 90 84 71 68 63 64 64
69 87 91 95 92 61 46 29 36 46 49 47 43 44 66 66 67 57 52 56 59 63 72 73 74 77 68 62 62 76 81 82 84 85 89 92 91 83 77 70 67 66 65 62
57 68 78 72 74 53 37 38 47 46 45 44 57 63 68 69 57 50 58 65 68 78 78 73 72 72 72 67 65 77 81 85 93 91 84 74 70 64 67 72 70 67 64 65
51 60 74 62 44 48 52 60 56 58 69 67 65 66 62 56 57 66 68 70 75 78 77 72 73 72 69 64 65 67 67 61 61 62 64 64 65 64 67 71 72 69 68 70
64 52 56 58 68 66 71 71 65 62 64 67 64 58 58 64 72 74 76 78 83 84 80 74 73 70 66 63 61 61 61 61 59 61 62 63 64 65 69 70 71 74 73 72
56 56 69 69 55 67 73 68 66 66 71 70 73 78 74 73 78 81 88 88 84 77 69 68 66 62 62 60 59 58 59 60 61 63 63 64 65 62 62 73 74 64 70 76

GFSCGP_925_rhum_027.txt.gz
RH
30 34 35 28 29 26 26 28 32 24 20 40 44 35 55 60 63 64 66 66 64 77 68 73 76 81 88 82 76 84 77 76 78 74 65 70 67 64 57 55 52 50 52 51
36 38 29 29 27 31 31 33 33 27 20 25 33 40 54 59 58 59 60 65 54 66 63 70 78 82 83 79 80 81 74 73 78 72 66 67 66 63 58 54 51 50 51 50
34 25 27 27 24 29 32 33 31 29 16 25 32 37 58 52 49 46 47 52 50 54 57 61 74 81 78 78 77 78 72 72 74 70 67 70 67 66 59 55 51 51 50 50
31 25 26 30 30 30 37 28 27 27 21 25 22 32 36 59 56 51 49 56 58 49 49 53 66 77 78 76 77 81 76 73 74 73 70 70 74 68 56 51 52 53 52 47
30 30 29 30 27 28 31 24 23 27 31 35 38 38 36 51 57 52 44 47 58 54 46 52 58 72 78 77 70 81 82 84 78 79 74 80 75 62 54 54 56 50 40 34
27 25 26 26 26 26 23 27 38 45 44 54 42 40 40 47 41 41 40 40 49 55 61 73 70 73 81 84 83 93 87 90 88 82 87 86 73 60 56 57 51 41 34 30
28 28 27 27 27 27 31 35 42 43 64 57 46 48 42 28 32 33 36 36 47 55 68 93 97 96 96 94 88 93 91 93 88 88 84 85 77 62 56 54 46 34 32 32
38 42 34 32 29 32 35 34 53 38 65 48 52 60 44 30 31 32 32 37 46 62 63 87 91 95 96 95 94 94 95 93 89 90 85 80 78 62 55 50 37 32 31 31
47 39 39 39 34 30 32 37 36 72 82 76 56 48 28 33 35 51 51 63 67 79 80 84 92 93 99 99 96 88 88 88 82 83 85 72 64 59 54 40 32 31 30 30
39 36 41 40 35 33 31 35 44 62 60 61 53 42 41 36 30 51 53 61 75 84 88 91 90 90 92 89 86 84 80 76 65 65 68 58 52 48 44 35 32 29 31 49
46 33 36 41 42 36 37 35 36 45 61 58 68 50 32 31 30 29 35 54 73 85 86 83 80 80 80 81 81 75 66 55 53 54 52 47 44 40 35 34 31 31 39 33
42 47 62 39 36 33 33 33 38 63 40 79 78 54 27 27 30 34 33 45 59 76 77 76 75 73 68 71 73 68 58 49 46 45 45 43 35 35 34 32 31 33 34 36
46 51 65 46 37 35 34 35 43 51 64 60 69 49 26 29 25 24 35 34 56 71 71 72 75 70 66 64 66 65 60 54 50 48 45 38 36 35 33 33 34 36 37 39
43 47 46 56 42 38 38 35 39 45 72 58 65 38 28 27 30 25 25 34 56 66 65 66 69 70 65 62 64 65 63 56 51 49 44 39 38 36 35 36 36 37 39 41
41 43 37 35 29 38 34 35 40 41 42 50 42 48 36 30 27 28 29 28 48 62 62 60 63 69 65 68 65 68 64 58 53 48 45 42 41 37 37 37 40 42 43 44
49 48 47 46 43 42 39 37 38 40 35 42 37 37 31 27 30 37 29 36 42 48 56 54 55 64 62 64 65 67 64 58 53 51 47 44 43 41 43 46 47 48 48 48
52 68 67 52 53 45 62 47 41 36 34 35 40 35 33 37 40 46 44 44 47 50 55 54 54 58 57 59 59 60 58 57 55 55 56 51 49 50 50 47 48 51 55 62
67 64 75 74 62 70 45 35 33 38 37 37 39 40 46 51 54 54 47 47 48 50 55 58 60 62 58 59 65 67 66 63 60 57 57 54 53 50 58 62 61 74 83 80
63 78 83 72 76 53 38 34 39 37 36 36 48 54 54 54 54 56 57 57 58 58 59 60 56 60 67 68 67 65 63 60 59 64 64 62 65 66 72 83 88 88 89 72
66 80 78 87 67 66 52 36 28 36 58 38 42 51 56 44 72 67 57 58 63 65 67 65 66 70 68 70 66 66 73 71 72 69 69 78 86 90 96 94 92 90 75 63
85 90 82 96 76 64 44 36 26 41 47 48 47 48 51 52 59 65 65 66 66 71 72 72 74 78 75 72 69 76 77 82 87 91 94 89 87 90 92 91 92 94 66 66
73 88 90 92 79 58 44 40 36 46 51 52 54 54 63 75 67 66 65 66 71 74 74 74 80 79 74 69 63 77 84 82 80 76 78 88 97 96 95 81 73 69 70 70
57 68 78 70 69 49 44 33 36 54 52 51 53 65 68 64 62 66 70 75 77 78 76 75 75 74 74 75 78 86 89 90 87 81 78 75 75 75 72 71 71 73 71 70
57 64 66 61 52 53 47 60 54 47 54 62 67 74 61 61 66 71 72 77 82 78 75 68 67 70 68 67 66 64 60 59 60 61 61 60 60 60 58 62 69 73 73 72
68 65 69 68 72 68 72 72 70 72 71 68 64 61 64 68 73 75 82 84 86 81 74 69 70 67 65 62 65 67 66 64 63 65 67 69 72 73 71 66 63 63 63 68
65 64 74 76 67 60 73 74 71 72 74 70 72 77 73 71 78 80 87 86 83 79 72 68 67 67 69 70 75 76 74 75 79 83 86 87 87 86 85 86 84 77 74 73

GFSCGP_925_rhum_030.txt.gz
RH
32 36 36 30 30 27 27 30 34 28 23 44 51 46 59 67 72 82 82 84 90 88 75 74 73 67 76 82 88 85 83 82 78 81 90 83 70 65 64 62 63 60 59 54
37 41 32 29 32 31 31 31 33 27 21 39 44 49 53 69 69 70 72 74 75 76 82 75 75 73 76 78 84 85 83 83 84 82 80 74 66 65 59 57 56 57 57 52
38 26 28 29 28 27 30 32 34 31 20 28 34 39 59 56 54 57 63 61 62 64 81 78 82 84 84 88 88 86 81 83 87 88 78 70 70 67 62 58 54 56 54 53
37 29 28 28 28 29 33 28 33 29 24 30 28 35 34 61 63 57 56 59 60 57 64 69 79 88 90 90 90 90 84 82 84 84 77 72 69 72 68 58 56 56 54 53
33 31 31 31 30 28 32 27 30 28 34 36 38 39 33 56 65 58 55 55 54 60 55 64 67 78 86 83 84 89 92 86 84 81 78 75 75 73 66 60 58 56 52 43
31 26 28 28 27 27 26 28 33 43 45 52 41 43 44 49 50 46 47 49 48 58 60 59 57 67 78 81 79 88 84 89 86 83 81 80 82 80 64 62 56 50 42 36
30 29 28 29 28 29 30 35 42 39 62 57 47 52 45 30 33 40 46 47 46 48 65 76 79 76 79 82 84 91 81 100 94 90 91 91 87 81 64 57 55 44 38 34
40 39 36 30 29 32 33 36 53 34 62 43 51 50 33 31 32 36 35 36 43 62 56 77 83 79 84 85 89 96 91 97 96 96 96 90 89 85 67 57 53 47 40 34
45 38 38 38 34 30 36 40 36 70 80 74 55 44 30 29 39 47 48 48 51 72 64 70 86 85 92 87 87 88 98 98 96 94 92 92 89 85 70 60 55 45 37 32
37 33 39 37 37 35 32 41 49 63 53 59 52 46 40 30 34 44 51 57 53 71 81 84 91 92 91 83 87 87 92 91 93 92 93 90 81 81 74 65 50 41 37 32
41 32 32 41 41 35 41 40 46 50 61 58 67 49 37 28 30 32 41 52 56 74 88 92 94 93 92 91 86 89 88 86 86 89 90 90 83 78 73 57 50 44 34 32
40 42 52 37 34 33 34 41 47 66 46 79 78 58 30 28 29 30 30 36 49 70 85 91 91 91 93 90 87 84 87 84 81 83 80 81 80 66 63 56 44 35 32 38
45 45 57 43 36 37 38 40 42 54 66 64 70 52 27 32 29 27 28 32 47 62 82 87 90 88 86 86 86 85 81 75 71 69 68 69 58 52 50 46 37 34 32 32
40 52 43 43 38 40 42 41 50 48 72 61 66 41 31 28 30 29 28 27 34 60 77 84 88 87 77 74 77 80 77 72 66 61 61 56 49 47 44 38 37 33 35 37
39 42 46 39 33 37 37 35 50 46 45 51 45 48 37 34 32 30 29 30 37 57 72 75 78 83 76 72 72 71 73 68 63 58 54 52 50 43 43 42 38 37 40 42
49 48 42 44 46 43 41 40 42 44 42 44 42 42 36 31 34 39 31 44 54 58 58 60 60 68 74 75 72 69 67 67 64 60 60 56 52 50 49 44 42 43 46 49
52 68 63 51 57 46 61 50 45 44 41 40 48 41 35 39 42 45 44 54 62 62 63 69 75 67 62 64 66 72 75 73 68 66 63 60 61 60 54 51 51 54 54 59
66 62 73 74 65 65 41 38 36 42 40 38 39 38 41 50 56 60 58 54 60 60 61 64 67 71 76 76 75 74 72 71 70 65 65 66 63 60 58 56 61 78 94 96
61 75 79 71 75 51 40 39 42 41 38 42 44 58 60 61 57 64 60 64 67 69 68 70 74 72 69 70 71 69 69 69 67 71 72 72 68 63 68 87 97 97 95 93
66 74 73 82 70 68 54 38 34 32 49 44 55 62 63 57 60 65 64 67 73 74 74 77 76 75 72 71 67 67 74 75 81 82 80 80 91 96 99 97 91 89 96 92
87 93 81 96 77 70 50 34 31 44 47 49 54 59 60 46 52 72 71 75 76 78 79 78 79 82 78 73 70 83 88 96 92 86 82 77 76 76 81 88 97 98 94 88
80 90 89 89 78 71 43 40 43 47 48 54 54 57 57 77 74 72 72 77 77 80 83 81 84 83 78 78 78 93 99 94 84 84 86 89 94 96 93 83 83 78 76 75
62 69 76 69 70 52 48 40 41 49 54 54 57 63 73 73 72 72 79 80 81 81 78 77 81 84 83 83 85 93 92 76 71 68 68 68 66 65 65 66 66 69 70 76
62 61 63 60 52 56 52 52 50 47 51 57 60 74 65 70 72 80 81 81 80 78 76 72 72 74 73 69 69 70 67 63 61 66 71 74 77 77 78 78 78 78 73 73
69 65 74 66 68 66 65 67 63 71 72 72 69 65 70 71 76 80 85 85 84 80 75 70 73 78 79 75 78 76 74 72 76 80 83 83 80 77 74 72 73 75 73 82
73 68 75 68 61 56 51 74 74 75 76 74 73 77 74 72 80 82 88 86 83 81 73 76 78 85 94 89 88 82 76 74 72 71 70 68 60 55 57 68 65 58 56 68

GFSCGP_925_rhum_033.txt.gz
RH
32 30 30 24 30 25 27 30 30 26 21 37 42 40 64 78 85 83 79 76 72 66 59 71 79 78 77 81 83 89 87 84 94 86 78 93 90 83 76 72 72 72 69 57
34 39 30 28 30 30 32 31 29 27 24 35 36 45 48 65 73 67 68 71 70 67 67 73 77 77 80 80 86 92 91 87 97 87 72 87 92 84 71 68 69 66 59 54
37 26 31 31 32 33 31 30 32 30 23 28 30 34 52 56 56 56 59 59 59 62 63 67 74 75 75 77 87 93 98 89 91 88 80 86 87 79 75 69 65 66 59 54
34 31 30 32 30 29 30 28 29 32 26 25 27 25 26 54 58 56 53 58 57 57 58 58 66 71 76 79 89 93 92 86 88 89 87 84 82 78 78 70 66 64 57 54
33 32 34 33 30 30 29 30 31 29 29 36 36 28 25 48 55 54 52 50 51 51 53 56 61 64 70 79 88 86 98 96 94 98 96 92 89 83 70 64 64 62 60 56
32 27 29 28 28 29 28 31 30 39 38 41 40 35 28 29 34 38 41 46 46 46 49 48 55 64 72 88 86 82 91 96 96 100 100 97 88 78 72 66 63 61 58 51
32 30 27 29 30 30 29 33 38 31 44 41 46 45 30 25 25 30 34 39 43 44 44 45 50 60 72 90 94 96 95 98 92 91 98 97 86 78 70 66 61 60 54 44
33 36 34 32 28 29 34 34 43 40 44 32 48 45 21 27 28 29 30 30 33 44 43 43 43 50 63 85 91 94 95 79 52 85 100 100 94 84 76 71 64 63 56 51
45 36 36 38 35 28 35 37 35 60 73 59 44 35 25 23 25 35 40 41 37 34 42 44 43 51 58 80 89 88 88 84 86 100 100 100 98 92 86 78 71 64 60 50
38 35 40 40 36 39 34 35 45 51 52 56 44 43 30 25 24 31 33 35 41 45 49 51 53 62 67 78 83 92 88 85 87 100 100 100 97 95 91 86 82 69 63 44
40 34 35 41 39 33 40 41 44 42 49 47 49 37 32 28 24 31 32 36 40 48 54 55 60 74 78 81 84 90 91 91 98 98 97 95 97 99 95 94 81 71 59 45
38 45 50 35 34 32 35 38 41 53 48 58 60 42 27 29 27 28 30 28 35 41 52 61 67 78 86 89 92 94 98 97 93 91 92 96 98 97 95 90 84 74 59 43
43 43 44 35 34 38 39 38 41 48 55 58 69 39 26 27 26 27 27 25 30 43 54 64 71 75 81 88 91 92 91 89 89 91 92 96 97 97 94 88 86 78 55 43
36 48 40 37 32 38 46 43 43 43 57 52 51 35 28 26 26 24 27 28 26 30 50 60 70 74 78 82 84 86 86 86 85 84 86 87 89 90 89 81 72 62 51 38
40 43 46 37 33 37 38 40 46 41 43 48 40 41 30 28 28 28 30 30 32 41 56 64 67 69 72 74 79 81 84 80 79 74 72 73 73 72 69 65 58 50 40 38
49 44 46 40 44 40 43 39 43 43 42 41 39 40 31 30 30 33 36 46 55 58 59 57 58 64 70 74 76 78 78 75 71 71 71 68 68 64 56 52 50 47 45 47
54 65 58 49 57 49 60 53 43 42 40 40 44 32 33 33 37 38 52 54 55 56 59 63 67 70 72 73 80 80 81 79 77 75 73 69 63 59 58 57 54 55 58 62
62 61 64 69 64 68 38 39 36 37 38 37 36 35 33 37 52 51 47 49 52 54 58 63 65 70 76 76 77 77 77 78 78 79 79 75 70 69 66 64 64 82 92 95
58 68 72 74 62 49 37 39 40 40 29 34 34 37 45 54 49 53 56 55 58 61 66 71 71 72 72 72 73 73 73 74 75 77 77 77 77 81 87 92 96 98 98 96
65 64 64 72 65 62 46 35 36 31 42 35 39 49 54 53 55 48 58 61 64 69 71 72 74 72 72 74 73 74 77 79 84 86 88 85 86 94 97 96 92 91 95 98
77 77 69 75 73 62 44 36 33 46 38 42 44 50 53 47 44 56 63 67 69 71 74 76 73 74 77 80 80 82 84 88 90 89 90 92 94 88 89 95 99 100 98 95
72 77 84 78 78 62 42 37 44 42 42 47 51 53 57 65 66 64 66 68 70 71 74 74 78 83 87 85 84 90 98 97 97 96 96 88 80 75 73 72 74 76 79 81
71 65 70 63 63 54 43 41 40 42 42 51 51 53 62 66 64 66 69 69 70 70 74 77 80 86 89 88 82 76 78 72 70 65 67 64 66 69 72 79 81 81 83 85
64 60 61 57 50 50 51 46 49 46 47 49 48 52 57 62 65 69 69 68 67 70 74 75 74 73 78 80 80 77 69 64 67 82 87 84 82 78 77 75 76 74 76 76
69 61 63 60 52 65 57 56 50 56 62 62 60 58 59 64 68 67 68 67 68 72 71 70 74 82 91 91 92 84 79 73 79 80 78 74 69 64 62 62 69 71 71 81
66 64 67 63 43 47 45 51 63 63 62 61 62 66 62 62 68 66 69 70 72 72 74 78 88 93 95 90 84 77 65 58 65 65 64 71 72 74 70 69 63 76 77 81

GFSCGP_925_rhum_036.txt.gz
RH
24 22 20 14 14 18 17 18 18 17 19 24 20 20 33 49 51 50 48 44 38 38 38 45 49 56 59 62 68 67 71 79 90 77 64 62 73 82 85 87 84 84 73 73
27 24 16 16 18 21 22 19 19 18 19 22 19 19 23 40 52 50 46 46 44 41 36 45 52 51 54 57 65 69 71 78 83 69 62 63 72 81 78 77 82 81 75 70
23 21 22 22 23 24 23 20 20 22 20 20 20 21 28 31 37 43 43 38 37 37 41 43 49 55 54 54 59 64 67 71 78 70 64 69 80 94 85 76 76 73 74 66
24 21 24 24 22 22 23 19 22 23 22 20 21 20 21 24 34 37 38 38 38 34 34 34 45 50 54 55 57 62 62 67 73 76 65 68 69 74 84 78 69 71 75 68
23 24 25 25 21 20 21 23 23 22 22 25 22 19 19 25 27 28 33 34 32 32 31 33 35 44 49 52 56 62 64 66 70 78 76 75 73 72 78 78 72 77 80 74
19 20 20 18 21 20 23 23 23 26 25 30 22 23 18 18 16 15 18 27 31 31 31 31 34 38 44 52 58 65 67 68 74 86 96 94 86 82 86 76 74 76 76 73
23 22 19 21 23 24 23 23 29 29 31 32 30 29 18 14 14 16 17 17 23 28 30 32 34 36 40 47 61 67 70 77 81 95 78 87 96 90 94 83 77 75 76 68
25 29 21 20 22 22 23 22 29 37 32 23 33 26 17 15 16 18 21 20 19 24 27 29 30 33 37 46 58 66 74 78 93 74 82 90 99 94 94 84 82 72 65 63
25 22 22 24 21 20 27 28 22 35 48 34 23 21 16 14 17 19 21 25 22 21 20 25 27 30 36 44 57 66 73 78 90 58 55 87 94 96 84 79 79 70 70 70
22 25 26 31 28 29 27 22 32 32 41 39 25 25 18 16 15 15 15 16 21 25 25 25 27 29 34 39 52 65 69 68 78 75 87 91 97 95 89 85 85 80 82 71
17 22 35 34 32 25 32 29 30 28 32 35 34 25 16 16 15 15 16 19 19 21 28 31 32 36 41 44 52 61 66 64 66 66 81 95 94 91 92 95 94 92 87 74
19 23 30 26 25 25 20 21 25 34 32 36 44 30 15 15 18 18 19 19 20 24 25 33 37 46 50 53 54 58 62 62 62 67 76 84 89 92 97 99 98 98 89 82
24 27 33 28 28 28 25 23 22 27 35 34 52 30 17 18 19 17 18 17 19 24 24 34 43 47 53 58 60 63 69 68 70 74 79 91 98 100 100 100 100 97 92 84
31 22 27 32 23 18 30 24 23 25 36 32 34 23 18 17 17 16 18 19 18 19 23 31 42 48 53 60 66 69 73 77 79 80 82 85 90 94 97 98 97 96 92 80
28 26 24 19 17 16 18 18 22 26 25 29 27 24 20 16 17 15 21 21 23 24 30 38 42 46 52 60 65 68 76 77 78 75 73 76 83 84 85 83 82 79 77 70
29 29 24 29 20 23 23 20 18 24 22 23 24 23 16 16 20 21 22 27 33 39 41 44 47 49 55 59 60 68 70 72 71 67 65 67 70 69 71 73 75 69 65 61
39 36 39 35 36 36 46 32 22 23 23 27 28 21 15 18 21 22 26 34 40 45 47 47 48 49 52 58 60 61 66 67 66 65 65 66 65 66 70 72 64 60 60 60
47 43 40 41 67 77 24 24 22 24 22 22 22 19 19 19 22 30 32 37 41 44 46 46 48 52 55 58 61 61 62 64 65 66 67 67 67 67 68 70 77 83 74 70
42 44 54 73 50 30 29 30 30 30 25 19 22 19 19 28 34 41 39 36 40 45 46 48 51 53 54 55 56 56 58 59 61 62 63 66 69 72 80 86 91 93 87 86
52 52 55 61 51 62 26 20 22 24 32 17 20 22 25 35 42 27 43 44 48 48 49 51 53 53 54 56 56 57 60 63 67 66 66 71 72 73 77 82 85 88 89 95
67 64 70 58 61 36 26 25 24 37 32 23 20 22 31 38 28 38 43 47 48 50 52 53 53 56 58 59 59 60 63 66 69 70 72 76 80 86 90 94 95 92 85 76
59 66 77 57 77 65 29 29 31 27 31 26 30 27 35 39 46 47 48 49 49 51 53 55 58 60 61 60 59 61 66 73 80 83 84 81 75 64 58 55 55 54 55 60
62 50 50 46 38 28 30 24 25 28 24 31 29 29 36 46 46 47 49 49 48 50 53 57 61 64 64 64 65 70 76 74 71 62 57 59 60 60 61 60 60 56 59 61
57 52 58 50 28 34 34 26 30 28 28 26 28 33 42 43 46 48 49 50 48 50 52 58 59 60 61 59 58 59 58 56 57 59 60 60 60 55 53 48 44 42 48 52
42 53 43 44 33 40 38 32 27 30 34 35 30 35 38 41 46 47 49 49 48 51 56 55 58 61 62 61 62 61 59 56 59 58 56 53 50 41 40 41 52 54 61 74
46 44 58 52 29 33 24 26 31 34 38 36 36 41 39 40 45 46 48 48 52 54 56 59 62 62 63 64 64 64 60 57 51 46 45 55 51 50 42 42 43 59 60 63

GFSCGP_925_rhum_039.txt.gz
RH
18 21 20 14 12 11 14 14 15 22 18 20 21 18 31 33 31 38 39 33 33 34 35 44 42 48 50 55 57 60 62 66 72 67 52 50 50 54 74 77 73 74 66 71
20 25 16 12 11 12 15 15 14 13 13 16 16 15 15 29 32 31 33 33 28 28 31 40 45 46 48 52 53 54 57 62 67 64 52 46 47 50 58 65 76 73 72 68
22 17 14 16 14 15 15 16 14 16 16 15 15 15 13 18 27 31 29 28 29 27 28 32 37 44 50 51 55 56 56 59 68 62 51 48 50 57 62 63 64 73 74 67
19 15 17 15 15 15 18 13 16 17 18 21 15 24 24 16 22 28 30 29 27 26 26 26 32 38 43 47 50 55 55 57 66 66 54 47 49 64 69 67 66 68 75 72
20 19 20 18 16 14 18 17 17 18 18 19 16 17 20 12 16 19 23 27 25 24 24 25 28 33 39 42 46 50 51 50 52 66 61 53 53 57 61 72 69 69 75 75
17 13 15 15 14 15 14 20 19 18 20 28 18 18 20 17 13 12 14 20 23 23 22 22 23 28 31 37 43 48 49 48 48 60 68 63 60 64 70 74 73 69 74 77
19 19 14 16 20 17 18 22 31 30 31 31 17 20 16 27 11 11 12 14 19 20 21 21 21 24 29 35 41 46 48 49 49 55 71 78 72 84 85 84 81 78 75 75
25 27 17 16 17 19 20 20 32 83 39 27 22 21 15 11 11 11 11 12 12 18 20 20 18 23 27 33 41 47 51 52 53 65 82 78 54 67 76 86 88 83 76 74
22 21 13 14 15 16 21 23 18 31 28 29 20 16 12 10 11 12 12 18 18 15 17 19 18 18 24 29 36 49 52 56 64 77 85 67 54 82 88 94 93 84 79 80
17 22 15 16 16 16 19 20 27 26 39 44 22 19 17 14 13 12 11 13 17 17 16 16 18 19 21 25 30 43 52 55 68 95 84 64 87 91 89 86 88 86 86 88
16 20 20 22 25 21 24 27 23 22 26 39 40 22 15 14 13 12 12 12 13 14 20 22 21 20 22 24 30 38 51 54 70 81 80 81 78 83 88 91 86 85 88 85
19 20 27 27 16 15 18 21 22 37 31 29 33 29 13 13 12 14 13 13 13 15 16 22 25 28 28 30 32 38 50 53 54 72 70 67 76 83 92 93 93 90 89 88
22 23 33 25 23 21 24 22 20 21 24 34 58 31 14 14 14 12 13 13 14 14 15 22 29 34 36 38 40 42 50 50 50 60 62 67 82 88 90 99 98 98 97 91
29 21 26 32 23 20 24 20 18 20 36 33 29 21 17 14 14 13 12 14 14 14 14 18 27 34 39 44 48 49 54 54 54 55 60 73 88 95 99 100 98 97 96 94
25 33 23 19 16 15 16 18 18 20 21 29 24 21 18 15 14 12 16 15 14 15 16 19 27 35 44 50 54 56 64 66 67 68 66 74 89 89 95 95 95 96 96 93
25 32 27 24 17 16 17 14 14 14 15 17 16 16 13 12 11 12 13 16 18 20 23 27 30 37 43 51 55 62 67 72 71 66 63 71 72 73 76 75 74 77 76 73
30 38 34 37 21 21 32 20 17 16 14 16 22 17 14 14 13 14 15 15 21 28 31 35 37 42 48 52 57 59 61 59 58 57 59 61 61 64 67 66 66 71 72 73
41 40 36 47 57 57 26 17 16 17 16 15 14 15 14 14 12 16 17 19 29 33 37 40 41 44 46 47 50 51 52 54 55 57 59 61 62 62 62 61 66 68 78 83
37 49 50 59 48 30 21 17 20 20 19 14 16 15 14 13 20 27 24 25 32 36 36 37 39 42 44 45 47 48 49 51 52 54 56 59 61 65 69 74 77 79 78 80
53 50 58 52 51 55 27 17 16 16 29 14 14 14 16 17 35 21 29 31 35 36 37 39 41 42 44 44 45 46 48 50 52 56 60 62 63 65 70 78 80 80 82 87
79 75 77 62 54 34 19 15 14 35 27 16 14 16 16 19 24 26 33 37 35 36 38 41 41 42 44 46 47 49 52 54 56 58 60 63 67 72 78 80 82 80 78 71
84 68 77 60 62 68 20 21 27 24 20 20 20 18 19 18 32 35 36 37 36 37 41 41 44 46 47 47 48 50 53 58 64 68 70 74 75 67 57 50 46 44 48 53
54 58 56 41 40 30 27 24 20 17 17 20 22 18 20 30 36 37 37 36 37 38 40 43 46 49 48 48 50 54 62 65 69 62 53 48 45 44 45 46 46 43 46 50
39 40 52 40 32 26 27 25 21 20 22 21 21 20 22 34 35 36 36 38 38 37 40 44 49 51 52 53 55 60 60 56 51 49 48 46 44 42 40 35 32 36 48 49
41 44 42 36 28 25 25 26 26 21 23 23 22 21 24 32 34 35 37 38 36 38 42 48 49 49 50 50 51 49 48 46 47 47 45 45 41 35 35 41 44 48 74 61
35 39 56 54 32 42 30 28 29 25 24 27 26 25 29 30 33 34 36 38 38 40 46 47 49 51 50 50 49 47 46 46 44 43 44 48 46 38 34 35 65 54 52 50

GFSCGP_925_rhum_042.txt.gz
RH
17 20 20 17 15 13 12 16 20 22 24 23 29 46 64 50 34 35 32 35 40 46 44 60 56 60 62 66 63 63 76 68 72 73 68 62 55 55 55 57 70 76 69 71
19 23 18 15 14 13 12 14 16 12 15 15 15 15 32 29 32 34 38 36 38 44 48 46 56 60 64 63 65 69 64 67 64 69 56 60 51 51 52 64 70 72 75 71
22 18 16 16 15 14 13 15 15 20 19 15 15 16 14 29 25 28 32 33 30 33 49 44 48 54 58 61 62 65 67 67 72 70 64 53 50 50 56 60 64 70 74 72
18 15 16 18 18 13 15 11 14 19 19 20 16 26 17 25 25 28 28 30 28 27 33 42 43 50 53 58 60 60 60 58 62 63 65 51 50 52 57 58 62 66 71 75
21 18 17 20 14 11 14 18 21 18 17 21 18 20 13 16 20 28 30 30 28 28 27 35 40 44 50 51 57 57 56 56 63 62 66 59 49 54 56 60 59 65 70 74
18 14 15 17 13 12 13 20 22 19 20 33 21 18 23 25 26 18 21 26 27 26 26 26 32 38 45 50 53 58 57 56 59 68 62 62 51 55 62 66 68 70 73 74
19 18 14 13 16 14 15 20 31 34 37 40 20 18 17 25 21 19 15 16 26 26 26 26 27 32 37 44 52 54 57 56 54 68 68 59 59 60 58 64 72 82 76 75
26 29 17 15 17 18 20 20 35 75 88 46 31 26 16 15 12 11 11 11 16 24 26 25 24 28 32 39 47 50 53 53 52 54 70 61 56 59 66 68 70 80 77 76
27 25 14 15 14 16 20 25 19 63 70 70 61 21 11 12 11 11 11 13 16 16 23 24 23 23 28 35 42 49 50 51 50 52 70 69 46 76 80 81 74 83 83 80
22 29 18 15 15 16 18 18 32 32 56 62 26 20 20 18 13 12 12 14 17 16 16 21 22 22 24 32 39 46 47 50 50 53 71 82 78 87 79 82 87 92 90 87
18 26 28 17 19 19 20 23 27 29 30 48 47 30 31 35 36 14 12 13 15 17 19 20 22 20 21 25 31 46 49 49 53 58 74 78 87 89 88 89 93 94 93 90
18 26 35 28 16 16 18 21 24 41 36 42 61 39 15 19 22 14 14 14 14 14 16 21 25 24 23 23 26 48 50 53 59 71 83 83 89 81 83 86 88 91 90 86
21 27 44 32 23 19 22 18 20 23 29 41 71 43 15 14 13 13 14 14 15 16 16 21 26 31 31 29 30 34 43 51 61 72 81 81 82 77 80 83 90 94 88 86
33 26 32 44 29 24 26 19 23 30 46 46 51 33 25 18 23 25 17 14 14 17 16 17 28 34 35 36 37 39 47 49 60 68 79 81 82 85 91 100 100 98 96 95
30 35 29 25 20 18 22 21 19 25 29 33 30 23 18 16 26 31 22 16 16 15 14 17 23 35 40 45 45 47 55 59 63 69 82 90 92 95 95 94 96 96 97 96
31 37 34 36 24 19 23 18 18 17 18 17 18 20 15 13 25 23 22 13 16 16 15 16 21 36 44 52 52 61 69 70 68 71 85 86 89 88 88 90 91 97 98 96
35 41 41 48 31 28 38 25 18 19 16 16 20 17 14 14 15 21 18 14 15 18 22 26 28 40 47 51 61 64 68 70 66 64 68 72 74 76 78 77 79 80 77 76
40 39 40 56 62 55 26 18 16 18 16 14 15 14 13 13 13 14 15 16 22 25 29 34 41 47 51 57 59 62 61 59 60 59 60 61 65 65 64 63 67 70 73 78
49 64 80 67 55 36 23 20 22 23 22 16 16 14 13 12 14 23 20 20 28 32 36 40 42 46 49 51 52 51 52 53 56 58 59 61 61 62 64 68 74 78 82 82
48 50 80 75 62 64 37 22 17 17 30 18 16 17 16 16 40 25 27 30 34 35 37 40 42 44 46 47 48 48 49 51 52 55 58 61 65 69 74 79 81 80 79 82
76 80 92 80 73 52 27 21 18 35 37 20 20 19 19 24 24 27 30 34 33 34 36 39 40 42 44 44 45 46 48 52 56 58 59 61 67 77 80 81 77 79 80 80
84 96 91 77 79 76 27 27 29 28 26 25 23 23 25 21 35 34 34 36 35 35 37 39 40 42 43 45 47 49 52 54 56 60 66 71 75 76 76 74 66 60 57 59
69 58 74 69 65 63 58 32 28 28 29 27 26 22 23 31 36 35 37 38 35 34 38 38 42 45 46 46 48 51 55 62 67 71 73 69 57 49 46 46 44 46 56 55
30 44 58 64 46 46 57 39 30 27 30 26 21 22 24 31 36 38 38 37 37 35 36 40 44 47 47 46 49 59 62 67 64 54 48 45 43 42 42 40 38 47 52 50
39 51 52 50 42 31 30 31 37 32 29 28 24 26 28 28 36 36 37 38 36 36 38 42 47 48 49 52 59 59 59 51 50 49 47 48 39 36 40 44 52 58 51 57
30 34 51 57 36 49 42 39 34 37 36 30 30 31 27 26 34 35 38 37 37 38 41 46 49 51 51 53 52 49 47 47 47 47 50 44 38 35 44 47 45 52 47 44

GFSCGP_925_rhum_045.txt.gz
RH
25 32 34 28 25 22 21 20 20 28 27 32 46 52 50 46 65 54 64 57 74 77 73 74 82 84 86 90 97 95 91 74 63 72 66 66 61 48 41 50 52 52 59 63
29 33 25 20 19 21 23 22 20 21 22 28 32 50 49 59 66 45 45 58 57 65 75 65 73 77 80 82 81 88 82 81 73 72 64 67 56 62 64 52 55 52 47 62
32 28 20 20 23 23 21 19 19 20 23 21 24 30 55 51 55 40 38 41 45 56 80 66 64 67 72 70 71 80 78 76 69 66 71 77 68 56 56 56 53 48 60 69
29 21 21 21 23 21 24 17 19 23 25 33 20 36 50 52 54 43 40 40 41 50 55 62 63 71 69 71 65 69 67 65 62 73 79 67 63 60 59 54 50 54 57 69
28 25 25 25 22 19 24 20 21 23 32 28 27 34 31 38 49 46 45 43 42 45 53 56 60 66 67 67 68 69 71 66 72 76 71 65 65 52 46 50 56 62 65 66
24 18 20 21 19 19 15 23 24 28 34 47 31 32 33 36 28 35 37 38 38 41 53 48 55 59 65 64 62 65 68 68 69 64 65 68 68 51 52 54 60 64 67 74
28 24 19 18 22 19 20 27 46 47 58 57 46 46 34 27 25 30 28 35 35 35 48 48 49 55 56 63 64 64 65 66 65 64 70 63 60 61 51 53 59 63 66 78
39 41 23 18 21 23 25 29 58 61 82 67 53 52 32 20 21 20 21 30 32 33 33 44 46 49 53 54 62 64 64 63 63 64 62 62 56 63 60 58 60 63 65 61
38 33 20 17 17 19 26 33 32 75 74 82 66 51 37 21 20 13 14 16 32 32 32 33 40 44 48 52 54 60 63 63 63 66 70 66 61 73 67 59 63 63 65 69
31 39 23 19 17 20 21 22 40 60 82 98 58 59 42 23 24 17 15 15 17 25 31 30 32 38 41 47 52 56 58 63 60 61 66 71 74 73 71 66 70 69 69 74
24 32 37 24 28 26 27 27 28 44 53 67 61 48 37 31 28 21 21 22 22 21 29 34 42 35 38 40 45 58 59 60 65 64 66 75 78 71 75 72 82 80 76 80
23 35 40 32 24 22 23 26 32 63 51 61 73 57 26 28 27 18 19 18 21 23 25 34 48 50 55 61 57 56 58 71 71 67 66 81 88 87 87 85 79 80 86 91
25 30 43 37 27 27 26 24 25 31 49 55 73 60 26 23 24 23 20 16 22 19 20 34 37 40 38 39 55 50 63 65 70 69 75 91 92 86 89 91 84 91 93 94
32 30 33 42 36 35 37 30 26 27 57 49 65 43 33 29 28 20 28 30 28 24 20 34 41 43 40 39 46 55 59 64 77 76 81 96 94 91 87 87 86 87 91 92
48 38 34 26 28 30 31 30 26 28 30 48 48 43 32 28 26 27 30 28 32 21 21 27 42 49 52 49 55 68 62 61 75 83 91 91 90 87 89 94 96 98 95 94
61 51 41 40 32 26 30 28 26 26 31 38 34 34 26 24 30 32 27 28 31 19 17 20 45 54 63 63 75 78 78 76 80 89 99 98 94 100 100 100 100 100 100 99
90 76 57 49 40 37 52 36 28 28 25 27 38 28 20 21 25 29 27 22 21 21 23 25 43 57 62 65 73 77 74 78 90 97 98 96 93 93 96 98 97 99 98 97
93 95 72 74 59 72 36 26 26 28 24 21 18 18 18 17 18 23 24 24 24 30 36 41 61 68 67 68 71 75 71 74 82 86 90 93 91 89 89 92 87 87 86 85
85 94 90 72 61 49 41 26 27 28 30 22 20 20 19 18 17 25 25 25 34 40 50 62 62 68 68 69 69 69 69 65 68 71 74 75 74 71 71 71 74 77 76 77
87 95 100 95 71 69 48 35 26 22 39 21 22 25 27 21 39 36 32 41 48 53 54 59 57 60 62 62 61 60 62 63 67 67 67 64 63 65 68 72 75 74 68 70
97 100 100 98 99 74 44 28 23 40 39 26 26 23 27 29 42 37 45 46 50 50 52 51 54 57 54 54 54 58 58 61 61 62 63 67 71 73 77 79 80 82 84 85
90 96 99 97 96 88 57 52 37 56 41 33 32 24 27 39 42 43 47 49 49 52 52 50 54 54 50 50 51 57 60 60 62 65 72 74 77 79 78 77 77 78 76 77
80 79 91 87 88 69 57 62 59 58 56 43 36 33 34 48 45 48 49 50 48 50 50 49 52 51 48 48 51 60 60 60 66 71 76 76 76 76 75 75 77 79 79 70
49 54 70 72 59 53 46 55 60 62 52 44 41 35 43 45 50 50 52 50 49 51 51 48 53 57 56 52 55 59 65 67 70 74 74 74 73 68 58 54 59 57 61 53
56 57 61 60 44 40 48 55 68 56 57 42 50 48 31 49 50 48 52 52 50 49 48 52 56 57 60 60 65 68 68 68 70 64 54 47 46 42 47 53 52 52 55 50
47 56 75 78 50 58 53 54 52 51 50 46 48 48 32 32 48 48 53 52 51 54 53 57 56 64 66 64 64 65 64 58 52 50 44 43 41 43 49 56 47 35 30 34

GFSCGP_925_rhum_048.txt.gz
RH
25 34 39 35 32 28 28 30 31 24 26 41 48 46 45 66 68 69 74 86 94 87 78 88 97 97 95 99 100 100 93 90 81 73 72 70 68 64 59 45 40 38 44 57
30 38 29 29 28 28 28 30 30 22 25 32 41 48 48 57 64 60 66 82 90 85 82 84 93 96 95 97 95 96 96 88 80 74 69 64 60 58 60 49 42 41 39 50
32 30 25 28 28 28 28 30 28 22 22 25 42 42 49 49 53 56 56 61 76 84 84 78 83 89 92 96 98 92 91 86 76 66 65 67 68 65 66 62 53 44 44 48
35 24 27 30 29 25 31 24 22 24 29 36 24 39 53 49 56 58 53 56 65 79 77 71 77 83 87 90 91 93 85 82 76 73 69 71 72 71 63 59 53 43 51 59
41 32 32 32 28 24 28 27 24 25 29 33 31 37 39 42 64 59 49 48 54 75 78 71 70 75 80 80 81 83 80 77 74 74 72 72 78 78 71 70 63 53 54 56
34 23 25 26 23 24 22 23 26 33 39 51 40 42 44 68 51 49 48 41 42 54 75 70 64 68 73 72 71 75 79 77 74 73 73 77 84 80 67 58 58 53 49 47
29 29 24 23 27 24 23 35 48 51 60 61 49 52 48 32 40 39 44 43 40 41 56 70 66 68 70 74 66 68 71 72 70 70 70 73 81 78 65 54 53 59 62 60
41 50 30 25 27 28 29 33 55 60 75 56 56 51 40 30 28 24 36 38 41 42 45 56 63 65 71 71 72 65 69 72 69 70 75 75 78 83 73 66 64 55 54 56
49 42 25 22 22 24 28 35 32 72 81 82 62 54 36 28 23 21 31 36 41 41 45 53 53 60 63 68 67 66 64 71 68 68 72 75 77 80 79 75 68 62 60 63
34 44 29 24 21 23 24 30 46 65 75 65 64 63 55 36 21 21 19 36 41 39 41 51 49 53 59 64 66 64 60 61 62 68 70 70 71 76 80 77 70 64 66 63
27 36 35 30 33 28 29 32 37 50 65 72 72 56 37 33 27 28 23 21 26 37 38 38 47 48 53 57 60 67 69 68 68 67 65 66 69 72 80 87 75 71 70 67
29 36 41 33 27 25 26 30 35 60 58 65 78 56 28 33 31 29 23 20 25 32 35 35 38 43 50 53 56 58 66 68 68 69 68 71 78 79 84 93 87 94 87 76
56 43 53 44 31 27 32 30 30 40 58 68 76 59 33 33 30 24 27 22 22 26 33 45 49 46 46 49 52 56 58 61 68 71 71 68 79 83 88 93 77 70 99 88
60 49 42 45 36 33 36 32 30 33 64 53 62 38 36 31 30 26 26 31 28 24 26 43 49 49 48 49 55 56 57 64 65 71 76 80 84 92 91 85 70 63 87 87
76 83 53 38 29 29 29 26 32 38 39 48 40 49 36 36 32 30 30 32 33 28 25 34 48 47 52 50 47 54 59 61 70 79 80 84 92 95 90 97 95 98 96 98
85 93 80 51 36 30 31 36 30 31 33 33 31 41 33 29 29 32 32 32 31 30 26 27 42 55 61 70 70 57 59 58 70 82 84 96 100 100 100 99 100 100 99 98
83 96 98 74 40 38 48 36 33 33 31 35 48 41 31 30 29 33 32 32 29 29 23 26 41 54 64 77 71 83 84 78 86 92 97 100 100 100 100 100 100 100 100 99
93 92 98 94 65 62 39 26 26 30 30 28 25 24 26 26 22 24 29 28 30 29 28 28 53 65 74 80 79 83 96 100 100 100 100 100 100 100 100 100 100 100 100 100
76 91 99 99 94 58 45 36 33 36 32 28 26 23 21 21 20 22 26 30 30 28 33 40 57 75 81 84 84 81 91 99 100 100 99 99 99 98 99 99 99 98 96 94
87 85 86 98 95 98 49 38 31 25 44 25 27 28 28 26 34 34 28 31 39 46 58 76 75 79 84 86 79 80 83 85 88 92 93 90 88 89 90 87 84 81 80 79
99 99 96 99 96 86 60 56 39 45 47 63 51 38 32 32 37 28 37 44 52 60 66 69 73 79 79 77 74 76 77 80 80 81 82 81 79 77 76 76 76 78 78 78
91 96 99 98 99 78 69 54 56 62 68 59 56 52 50 44 38 42 48 56 61 65 68 68 72 72 70 70 69 72 74 73 72 72 72 70 69 70 72 72 72 73 77 87
76 76 90 86 73 59 67 54 59 62 65 57 59 49 52 48 46 49 52 58 58 62 65 63 66 67 64 64 65 71 74 73 74 73 78 76 75 77 77 79 86 89 88 86
46 64 73 81 53 56 50 62 64 66 65 57 51 51 53 51 52 55 58 60 61 61 63 61 64 67 67 62 64 68 71 71 72 83 86 84 84 87 87 87 86 84 84 83
60 60 57 70 54 48 49 51 53 54 49 45 46 50 53 57 54 55 59 60 58 59 60 60 64 69 73 69 72 72 72 70 80 83 83 79 80 79 76 78 81 82 77 75
92 97 97 83 81 76 55 50 50 46 45 47 50 56 53 46 47 50 57 55 56 64 64 68 72 76 77 76 77 76 74 71 75 70 67 64 68 63 61 56 51 54 61 61